This is the latest recevied weather packets stored in our database for station/object N7ZAP. If no packets are shown the sender has not sent any weather packets the latest 10 day(s).
| Time | Temp. | Humidity | Pressure | Rain* | Wind** | Luminosity | Snow |
|---|---|---|---|---|---|---|---|
| 1777229552 | 25° C | 14% | 1007.1 hPa | 0 mm | - | - | - |
| 1777229250 | 25° C | 14% | 1006.9 hPa | 0 mm | - | - | - |
| 1777228947 | 25° C | 14% | 1007.3 hPa | 0 mm | - | - | - |
| 1777228642 | 25° C | 13% | 1006.9 hPa | 0 mm | - | - | - |
| 1777228339 | 25.56° C | 14% | 1007.1 hPa | 0 mm | - | - | - |
| 1777228034 | 25.56° C | 14% | 1007.3 hPa | 0 mm | - | - | - |
| 1777227728 | 25° C | 16% | 1007.2 hPa | 0 mm | - | - | - |
| 1777227424 | 25° C | 15% | 1006.9 hPa | 0 mm | - | - | - |
| 1777227120 | 25° C | 15% | 1007.6 hPa | 0 mm | - | - | - |
| 1777226817 | 25° C | 15% | 1007.7 hPa | 0 mm | - | - | - |
| 1777226516 | 25° C | 14% | 1007.4 hPa | 0 mm | - | - | - |
| 1777226212 | 25° C | 16% | 1008 hPa | 0 mm | - | - | - |
| 1777225908 | 25° C | 16% | 1007.7 hPa | 0 mm | - | - | - |
| 1777225604 | 24.44° C | 18% | 1007.9 hPa | 0 mm | - | - | - |
| 1777225301 | 24.44° C | 18% | 1007.9 hPa | 0 mm | - | - | - |
| 1777224998 | 23.33° C | 19% | 1008 hPa | 0 mm | - | - | - |
| 1777224696 | 23.33° C | 19% | 1008 hPa | 0 mm | - | - | - |
| 1777224396 | 23.33° C | 18% | 1008.1 hPa | 0 mm | - | - | - |
| 1777224092 | 23.89° C | 18% | 1008.2 hPa | 0 mm | - | - | - |
| 1777223789 | 23.33° C | 19% | 1008.7 hPa | 0 mm | - | - | - |
| 1777223485 | 22.78° C | 19% | 1008.8 hPa | 0 mm | - | - | - |
| 1777223183 | 23.33° C | 19% | 1008.7 hPa | 0 mm | - | - | - |
| 1777222880 | 22.78° C | 20% | 1008.9 hPa | 0 mm | - | - | - |
| 1777222577 | 23.33° C | 19% | 1009 hPa | 0 mm | - | - | - |
| 1777222275 | 23.33° C | 20% | 1008.9 hPa | 0 mm | - | - | - |
* Rain latest hour (hover to see other rain measurements)
** Current wind speed in m/s (hover to see current wind gust speed)